Showing default

ICEYE-X73, 68496

Orbit data source: Space-Track

ICEYE-X73, 68496 is a payload satellite owned by ICEYE (PT) in SSO that was launched on Mon, 30 Mar 2026 UTC via an FALCON 9 launch vehicle from the Air Force Western Test Range (AFWTR). Payload-class satellites include a variety of spacecraft equipped with specific instruments for various scientific and technological missions. These include communications satellites like Starlink; space stations such as the ISS; scientific satellites like the Hubble; Earth observation satellites from companies like Planet Labs, Umbra, and HawkEye 360; GPS; miniature CubeSats for education and research; and military/defense satellites.

Loading next visibility...
Identifier
68496, 2026-067CJ
Orbit
SSO
Country
Flag of PTPT / POR
Related business
Manufacturer
ICEYE
Mission
Operational spacecraft
Bus & Motor
ICEYE, Unknown motor
Mass
120 kg wet, 120 kg dry
Launch date (UTC)
2026-03-30 (3 months ago)
Launch vehicle
FALCON 9
Launch site
Air Force Western Test Range (AFWTR)
Object type
Payload
Rocket body
Debris
Shape & HBR
Unknown shape, 0.6 m
Radar Cross Section
Medium (>0.1 m² and <1 m²)

Expand to show TLE details & history
Last TLE update: 2 days ago

TLE from 2 days ago
0 ICEYE-X73
1 68496U 26067CJ  26171.38551196  .00001812  00000-0  18325-3 0  9993
2 68496  97.7608 129.6374 0000939  16.3079 343.8170 14.92236289 12208
Epoch: 2026-06-20T09:15Z
TLE epoch observation values (Epoch: 2026-06-20T09:15:08.233Z)
Latitude
-0.00002°
Longitude
82.25221°
Altitude
593.378 km
Speed
7.564 km/s
True Right ascension
08h 38m 32s
True Declination
0° 00' 00"
Sunlit
Object was in daylight at epoch
Visualization orbit readout
Latitude
Unknown
Longitude
Unknown
Altitude
Unknown
Speed
Unknown
Apparent Right ascension
Unknown
Apparent Declination
Unknown
Sunlit
N/A
Visualization observer readout
Local Sidereal Time
13:50:18
Azimuth
Unknown
Elevation
Unknown
Doppler factor
Unknown
Orbital elements
Apogee altitude
588.637 km
Perigee altitude
587.328 km
Semi-major axis
6,966.12 km
Eccentricity
0.00009
Inclination
97.7608°
RAAN
129.6374°
Arg. of periapsis
16.3079°
True anomaly
343.814°
Mean anomaly
343.817°
Eccentric anomaly
343.8155°
Mean motion
3.73299 °/min
Orbital period
96.44 mins
BSTAR
0.00018325
Loading maneuver chart data...
Computing Atmospheric mass density...
Loading historical data...
Loading historical data...
Loading historical data...
Loading historical data...
Loading historical data...
Loading historical data...
Loading historical data...

Documentation

Showing up to 5 results
|